When you browse on this site, cookies collect data to enhance your experience and personalize the content and advertising you see.
Visit our Privacy Policy to learn more. By continuing to use the site, you agree to this use of cookies and data.
  • In Hungary
  • List of Countries
  • For 7 days
  • Water Temperature
  • Weather Map
  • News
  • Weather Widgets
  • user-avatar
    Login

    Hourly Weather Bataysk

    Today, 15 November, Friday

    Time Temperature Precipitation Wind Pressure Humidity
    00:00 +5°C° 0 mm 9 mps 769 mmHg 62%
    01:00 +5°C° 0 mm 9 mps 769 mmHg 63%
    02:00 +5°C° 0 mm 9 mps 769 mmHg 64%
    03:00 +3°C° 0 mm 10 mps 769 mmHg 65%
    04:00 +3°C° 0 mm 9 mps 769 mmHg 68%
    05:00 +3°C° 0 mm 9 mps 769 mmHg 71%
    06:00 +3°C° 0 mm 9 mps 769 mmHg 74%
    07:00 +3°C° 0 mm 9 mps 769 mmHg 74%
    08:00 +3°C° 0 mm 10 mps 770 mmHg 73%
    09:00 +5°C° 0 mm 10 mps 770 mmHg 73%
    10:00 +6°C° 0 mm 10 mps 770 mmHg 66%
    11:00 +7°C° 0 mm 10 mps 770 mmHg 60%
    12:00 +8°C° 0 mm 10 mps 770 mmHg 53%
    13:00 +9°C° 0 mm 10 mps 769 mmHg 51%
    14:00 +10°C° 0 mm 9 mps 769 mmHg 50%
    15:00 +10°C° 0 mm 9 mps 769 mmHg 48%
    16:00 +10°C° 0 mm 9 mps 769 mmHg 50%
    17:00 +8°C° 0 mm 9 mps 769 mmHg 53%
    18:00 +7°C° 0 mm 8 mps 769 mmHg 55%
    19:00 +7°C° 0 mm 8 mps 770 mmHg 58%
    20:00 +6°C° 0 mm 8 mps 770 mmHg 61%
    21:00 +6°C° 0 mm 8 mps 770 mmHg 65%
    22:00 +5°C° 0 mm 8 mps 770 mmHg 66%
    23:00 +5°C° 0 mm 8 mps 770 mmHg 67%

    Tomorrow, 16 November, Saturday

    Time Temperature Precipitation Wind Pressure Humidity
    00:00 +5°C° 0 mm 8 mps 769 mmHg 68%
    01:00 +4°C° 0 mm 8 mps 770 mmHg 71%
    02:00 +4°C° 0 mm 8 mps 770 mmHg 73%
    03:00 +4°C° 0 mm 8 mps 770 mmHg 76%
    04:00 +2°C° 0 mm 8 mps 770 mmHg 76%
    05:00 +2°C° 0 mm 8 mps 770 mmHg 76%
    06:00 +2°C° 0 mm 8 mps 770 mmHg 76%
    07:00 +2°C° 0 mm 8 mps 770 mmHg 76%
    08:00 +3°C° 0 mm 9 mps 771 mmHg 75%
    09:00 +3°C° 0 mm 9 mps 771 mmHg 74%
    10:00 +6°C° 0 mm 9 mps 771 mmHg 67%
    11:00 +7°C° 0 mm 9 mps 770 mmHg 61%
    12:00 +8°C° 0 mm 9 mps 770 mmHg 55%
    13:00 +10°C° 0 mm 8 mps 770 mmHg 52%
    14:00 +11°C° 0 mm 8 mps 770 mmHg 49%
    15:00 +11°C° 0 mm 8 mps 770 mmHg 47%
    16:00 +10°C° 0 mm 7 mps 770 mmHg 51%
    17:00 +9°C° 0 mm 7 mps 770 mmHg 56%
    18:00 +8°C° 0 mm 6 mps 770 mmHg 60%
    19:00 +8°C° 0 mm 6 mps 770 mmHg 63%
    20:00 +7°C° 0 mm 6 mps 770 mmHg 66%
    21:00 +7°C° 0 mm 6 mps 771 mmHg 69%
    22:00 +7°C° 0 mm 6 mps 771 mmHg 72%
    23:00 +5°C° 0 mm 6 mps 771 mmHg 74%

    Day after tomorrow, 17 November, Sunday

    Time Temperature Precipitation Wind Pressure Humidity
    00:00 +5°C° 0 mm 6 mps 771 mmHg 76%
    01:00 +5°C° 0 mm 6 mps 771 mmHg 77%
    02:00 +4°C° 0 mm 6 mps 771 mmHg 79%
    03:00 +4°C° 0 mm 6 mps 771 mmHg 80%
    04:00 +4°C° 0 mm 6 mps 771 mmHg 81%
    05:00 +4°C° 0 mm 6 mps 771 mmHg 82%
    06:00 +4°C° 0 mm 6 mps 771 mmHg 83%
    07:00 +4°C° 0 mm 6 mps 771 mmHg 82%
    08:00 +4°C° 0 mm 7 mps 771 mmHg 80%
    09:00 +5°C° 0 mm 7 mps 772 mmHg 78%
    10:00 +6°C° 0 mm 7 mps 771 mmHg 71%
    11:00 +9°C° 0 mm 7 mps 771 mmHg 63%
    12:00 +10°C° 0 mm 7 mps 771 mmHg 56%
    13:00 +11°C° 0 mm 7 mps 771 mmHg 54%
    14:00 +11°C° 0 mm 7 mps 770 mmHg 52%
    15:00 +12°C° 0 mm 7 mps 770 mmHg 50%
    16:00 +11°C° 0 mm 6 mps 770 mmHg 55%
    17:00 +10°C° 0 mm 6 mps 770 mmHg 59%
    18:00 +9°C° 0 mm 6 mps 770 mmHg 63%
    19:00 +8°C° 0 mm 5 mps 770 mmHg 65%
    20:00 +8°C° 0 mm 5 mps 770 mmHg 67%
    21:00 +7°C° 0 mm 5 mps 770 mmHg 69%
    22:00 +7°C° 0 mm 5 mps 770 mmHg 72%
    23:00 +6°C° 0 mm 5 mps 770 mmHg 75%

    18 November, Monday

    Time Temperature Precipitation Wind Pressure Humidity
    00:00 +6°C° 0 mm 5 mps 770 mmHg 78%
    01:00 +6°C° 0 mm 5 mps 770 mmHg 81%
    02:00 +5°C° 0 mm 5 mps 770 mmHg 84%
    03:00 +5°C° 0 mm 5 mps 770 mmHg 87%
    04:00 +5°C° 0 mm 5 mps 769 mmHg 89%
    05:00 +3°C° 0 mm 6 mps 769 mmHg 90%
    06:00 +3°C° 0 mm 6 mps 769 mmHg 92%
    07:00 +4°C° 0 mm 6 mps 769 mmHg 88%
    08:00 +4°C° 0 mm 6 mps 769 mmHg 84%
    09:00 +4°C° 0 mm 6 mps 770 mmHg 81%
    10:00 +7°C° 0 mm 6 mps 769 mmHg 75%
    11:00 +8°C° 0 mm 6 mps 769 mmHg 69%
    12:00 +9°C° 0 mm 6 mps 769 mmHg 63%
    13:00 +10°C° 0 mm 6 mps 769 mmHg 61%
    14:00 +10°C° 0 mm 5 mps 769 mmHg 58%
    15:00 +12°C° 0 mm 5 mps 768 mmHg 56%
    16:00 +10°C° 0 mm 5 mps 768 mmHg 60%
    17:00 +10°C° 0 mm 4 mps 768 mmHg 65%
    18:00 +8°C° 0 mm 4 mps 768 mmHg 69%
    19:00 +8°C° 0 mm 4 mps 769 mmHg 70%
    20:00 +7°C° 0 mm 4 mps 769 mmHg 72%
    21:00 +7°C° 0 mm 4 mps 769 mmHg 73%
    22:00 +6°C° 0 mm 4 mps 769 mmHg 75%
    23:00 +6°C° 0 mm 4 mps 769 mmHg 77%

    19 November, Tuesday

    Time Temperature Precipitation Wind Pressure Humidity
    00:00 +5°C° 0 mm 4 mps 769 mmHg 79%
    01:00 +5°C° 0 mm 3 mps 769 mmHg 82%
    02:00 +5°C° 0 mm 3 mps 769 mmHg 85%
    03:00 +4°C° 0 mm 3 mps 769 mmHg 88%
    04:00 +4°C° 0 mm 3 mps 769 mmHg 89%
    05:00 +4°C° 0 mm 3 mps 769 mmHg 90%
    06:00 +3°C° 0 mm 3 mps 769 mmHg 92%
    07:00 +4°C° 0 mm 4 mps 769 mmHg 90%
    08:00 +4°C° 0 mm 4 mps 769 mmHg 89%
    09:00 +5°C° 0 mm 4 mps 769 mmHg 87%
    10:00 +6°C° 0 mm 4 mps 769 mmHg 80%
    11:00 +8°C° 0 mm 4 mps 769 mmHg 74%
    12:00 +10°C° 0 mm 4 mps 769 mmHg 67%
    13:00 +11°C° 0 mm 4 mps 769 mmHg 65%
    14:00 +12°C° 0 mm 4 mps 769 mmHg 63%
    15:00 +12°C° 0 mm 4 mps 768 mmHg 61%
    16:00 +11°C° 0 mm 3 mps 768 mmHg 67%
    17:00 +10°C° 0 mm 3 mps 768 mmHg 73%
    18:00 +9°C° 0 mm 3 mps 769 mmHg 79%
    19:00 +8°C° 0 mm 3 mps 769 mmHg 81%
    20:00 +8°C° 0 mm 3 mps 769 mmHg 84%
    21:00 +7°C° 0 mm 3 mps 769 mmHg 87%
    22:00 +7°C° 0 mm 3 mps 769 mmHg 88%
    23:00 +5°C° 0 mm 3 mps 769 mmHg 89%

    20 November, Wednesday

    Time Temperature Precipitation Wind Pressure Humidity
    00:00 +5°C° 0 mm 3 mps 769 mmHg 89%
    01:00 +5°C° 0 mm 4 mps 769 mmHg 90%
    02:00 +5°C° 0 mm 4 mps 769 mmHg 90%
    03:00 +4°C° 0 mm 4 mps 769 mmHg 90%
    04:00 +4°C° 0 mm 4 mps 769 mmHg 90%
    05:00 +4°C° 0 mm 4 mps 769 mmHg 91%
    06:00 +4°C° 0 mm 4 mps 769 mmHg 91%
    07:00 +3°C° 0 mm 5 mps 769 mmHg 87%
    08:00 +3°C° 0 mm 5 mps 770 mmHg 84%
    09:00 +3°C° 0 mm 6 mps 770 mmHg 80%
    10:00 +4°C° 0 mm 6 mps 770 mmHg 71%
    11:00 +5°C° 0 mm 7 mps 770 mmHg 62%
    12:00 +6°C° 0 mm 7 mps 770 mmHg 53%
    13:00 +6°C° 0 mm 7 mps 770 mmHg 54%
    14:00 +6°C° 0 mm 7 mps 770 mmHg 56%
    15:00 +6°C° 0 mm 8 mps 770 mmHg 57%
    16:00 +5°C° 0 mm 8 mps 770 mmHg 61%
    17:00 +4°C° 0 mm 8 mps 771 mmHg 65%
    18:00 +2°C° 0 mm 8 mps 771 mmHg 69%
    19:00 +2°C° 0 mm 8 mps 772 mmHg 67%
    20:00 +1°C° 0 mm 8 mps 772 mmHg 65%
    21:00 0°C° 0 mm 8 mps 772 mmHg 63%
    22:00 -1°C° 0 mm 8 mps 772 mmHg 60%
    23:00 -2°C° 0 mm 8 mps 773 mmHg 57%
    Show more